Meteo Giornale » Osservazioni meteo Georgia » Batumi
ore: 17:00 - Osservazioni Meteo Batumi
Lat. 41° 37' N Lon. 41° 36' E Alt. 32 metri s.l.m.
25 °C
Molto Nuvoloso
Temp. 24 Ore
21 °C
26 °C
Sud/Sud-Ovest
11.1 Km/h
Dew point 21 °C
Umidità 78 %
Visibilità 10 Km
Il sole sorge alle ore 06:39
Il sole tramonta alle ore 19:47
| Data e Ora | Cielo e Fenomeni | T °C | DP °C | Um. % | Pres. hPa | Vis. km | Vento km/h | |
|---|---|---|---|---|---|---|---|---|
| Oggi h: 17:00 | Molto Nuvoloso | 25 | 21 | 78 | 1015 | 10 | S/SO 11.1 | |
| Oggi h: 16:30 | Molto Nuvoloso | 24 | 21 | 83 | 1015 | 10 | SO 11.1 | |
| Oggi h: 16:00 | Nuvoloso | 24 | 21 | 83 | 1015 | 10 | SO 13 | |
| Oggi h: 15:30 | Nuvoloso | 26 | 22 | 78 | 1015 | 10 | O 13 | |
| Oggi h: 15:00 | Molto Nuvoloso | 26 | 21 | 73 | 1016 | 10 | O 13 | |
| Oggi h: 14:30 | Molto Nuvoloso | 26 | 21 | 73 | 1015 | 10 | O 14.8 | |
| Oggi h: 14:00 | Nuvoloso | 26 | 21 | 73 | 1015 | 10 | O/SO 14.8 | |
| Oggi h: 13:30 | Nuvoloso | 26 | 21 | 73 | 1015 | 10 | O/SO 14.8 | |
| Oggi h: 13:00 | Molto Nuvoloso | 26 | 21 | 73 | 1015 | 10 | O/SO 13 | |
| Oggi h: 12:30 | Molto Nuvoloso | 26 | 21 | 73 | 1015 | 10 | O 7.4 | |
| Oggi h: 12:00 | Molto Nuvoloso | 25 | 21 | 78 | 1015 | 10 | NO 9.3 | |
| Oggi h: 11:30 | Molto Nuvoloso | 26 | 21 | 73 | 1015 | 10 | N 5.5 | |
| Oggi h: 11:00 | Coperto | 25 | 20 | 73 | 1015 | 10 | N 7.4 | |
| Oggi h: 10:30 | Nuvoloso | 25 | 21 | 78 | 1015 | 10 | SE 9.3 | |
| Oggi h: 10:00 | Molto Nuvoloso | 22 | 20 | 88 | 1015 | 10 | SE 13 | |
| Oggi h: 09:30 | Molto Nuvoloso | 22 | 20 | 88 | 1015 | 10 | SE 13 | |
| Oggi h: 09:00 | Molto Nuvoloso | 21 | 20 | 94 | 1015 | 10 | SE 13 | |
| Oggi h: 08:30 | Pioggia | 21 | 20 | 94 | 1015 | 10 | E 13 | |
| Oggi h: 08:00 | Molto Nuvoloso | 21 | 20 | 94 | 1015 | 10 | SE 9.3 | |
| Oggi h: 07:30 | Pioggia | 21 | 20 | 94 | 1015 | 10 | E/SE 11.1 | |
| Oggi h: 07:00 | Temporale | 21 | 20 | 94 | 1015 | 10 | E/SE 11.1 | |
| Oggi h: 06:30 | Temporale | 21 | 20 | 94 | 1015 | 6 | O/SO 9.3 | |
| Oggi h: 06:00 | Temporale | 21 | 20 | 94 | 1014 | 10 | N 5.5 | |
| Oggi h: 05:30 | Temporale | 21 | 20 | 94 | 1014 | 10 | N 9.3 | |
| Oggi h: 05:00 | Temporale | 21 | 20 | 94 | 1014 | 10 | SE 9.3 | |
| Oggi h: 04:30 | Pioggia Temporale nelle vicinanze | 21 | 20 | 94 | 1014 | 10 | SE 7.4 | |
| Oggi h: 04:00 | Pioggia Temporale nelle vicinanze | 21 | 20 | 94 | 1014 | 9 | N 5.5 | |
| Oggi h: 03:30 | Pioggia Temporale nelle vicinanze | 22 | 21 | 94 | 1014 | 10 | SE 9.3 | |
| Oggi h: 03:00 | Pioggia Temporale nelle vicinanze | 22 | 21 | 94 | 1014 | 10 | S/SE 7.4 | |
| Oggi h: 02:30 | Pioggia Temporale nelle vicinanze | 22 | 21 | 94 | 1014 | 10 | N 9.3 | |
| Oggi h: 02:00 | Temporale nelle vicinanze | 22 | 20 | 88 | 1014 | 10 | SE 13 | |
| Oggi h: 01:30 | Temporale nelle vicinanze | 21 | 20 | 94 | 1014 | 10 | E/SE 13 | |
| Oggi h: 01:00 | Pioggia Temporale nelle vicinanze | 21 | 20 | 94 | 1014 | 10 | SE 11.1 | |
| Oggi h: 00:30 | Pioggia Temporale nelle vicinanze | 22 | 20 | 88 | 1014 | 10 | E/SE 11.1 | |
| Oggi h: 00:00 | Pioggia Temporale nelle vicinanze | 22 | 20 | 88 | 1014 | 10 | SE 7.4 | |
| Ieri h: 23:30 | Temporale nelle vicinanze | 22 | 20 | 88 | 1015 | 10 | SE 7.4 | |
| Ieri h: 23:00 | Molto Nuvoloso | 22 | 20 | 88 | 1014 | 10 | SE 11.1 | |
| Ieri h: 22:30 | Temporale nelle vicinanze | 22 | 21 | 94 | 1014 | 10 | E/SE 9.3 | |
| Ieri h: 22:00 | Molto Nuvoloso | 22 | 21 | 94 | 1014 | 10 | SE 7.4 | |
| Ieri h: 21:30 | Molto Nuvoloso | 22 | 21 | 94 | 1014 | 10 | S/SE 7.4 | |
| Ieri h: 21:00 | Molto Nuvoloso | 23 | 21 | 88 | 1014 | 10 | N 1.8 | |
| Ieri h: 20:30 | Molto Nuvoloso | 24 | 21 | 83 | 1014 | 10 | SO 7.4 | |
| Ieri h: 20:00 | Temporale | 24 | 22 | 88 | 1014 | 10 | SO 11.1 | |
| Ieri h: 19:30 | Temporale | 24 | 22 | 88 | 1014 | 10 | SO 13 | |
| Ieri h: 19:00 | Molto Nuvoloso | 25 | 21 | 78 | 1013 | 10 | SO 11.1 | |
| Ieri h: 18:30 | Temporale | 25 | 21 | 78 | 1013 | 10 | SO 14.8 | |
| Ieri h: 18:00 | Temporale nelle vicinanze | 25 | 22 | 83 | 1013 | 10 | SO 14.8 | |



